Weather History for Tallahassee, FL

Change the Weather History Date:

Wednesday, October 9, 2013

  Actual Average Record
Temperature  
Mean Temperature 68 °F 72 °F  
Max Temperature 74 °F 83 °F 95 °F (1941)
Min Temperature 62 °F 60 °F 38 °F (1988)
Degree Days  
Heating Degree Days 0    
Month to date heating degree days 0  
Since 1 July heating degree days 0  
Cooling Degree Days 3    
Month to date cooling degree days 116  
Year to date cooling degree days 2621  
Growing Degree Days 18 (Base 50)    
Moisture  
Dew Point 60 °F    
Average Humidity 79    
Maximum Humidity 93    
Minimum Humidity 64    
Precipitation  
Precipitation 0.00 in 0.11 in 3.22 in (1959)
Month to date precipitation 0.81 1.06  
Year to date precipitation 57.27 49.66  
Sea Level Pressure  
Sea Level Pressure 30.08 in    
Wind  
Wind Speed 5 mph (NE)    
Max Wind Speed 13 mph    
Max Gust Speed 17 mph    
Visibility 10 miles    
Events      
T = Trace of Precipitation, MM = Missing Value Source: NWS Daily Summary

Daily Weather History Graph

Daily Weather History Graph

Search for Another Location

Airport:

Trip Planner

Search our weather history database for the weather conditions in past years. The results will help you decide how hot, cold, wet, or windy it might be!

Date:

Astronomy

Oct. 09, 2013 Rise Set
Actual Time 7:35 AM EDT 7:12 PM EDT
Civil Twilight 7:11 AM EDT 7:36 PM EDT
Nautical Twilight 6:43 AM EDT 8:04 PM EDT
Astronomical Twilight 6:16 AM EDT 8:32 PM EDT
Moon 12:14 PM EDT (10/9) 11:02 PM EDT (10/9)
Length of Visible Light 12h 25m
Length of Day
11h 36m
Waxing Crescent, 25% of the Moon is Illuminated
Oct 9
Waxing Crescent
Oct 11
First Quarter
Oct 18
Full
Oct 26
Last Quarter
Nov 3
New

Hourly Weather History & Observations

Time (EDT) Temp. Dew Point Humidity Pressure Visibility Wind Dir Wind Speed Gust Speed Precip Events Conditions
12:53 AM 73.0 °F 63.0 °F 71% 30.02 in 10.0 mi ENE 6.9 mph 28.8 mph N/A   Overcast
1:53 AM 72.0 °F 62.1 °F 71% 30.02 in 10.0 mi NE 9.2 mph - N/A   Overcast
2:53 AM 70.0 °F 61.0 °F 73% 30.03 in 10.0 mi East 11.5 mph - N/A   Overcast
3:53 AM 69.1 °F 61.0 °F 75% 30.03 in 10.0 mi NE 5.8 mph - N/A   Overcast
4:53 AM 66.9 °F 59.0 °F 76% 30.04 in 10.0 mi ENE 8.1 mph - N/A   Overcast
5:53 AM 66.9 °F 59.0 °F 76% 30.05 in 10.0 mi NNE 9.2 mph - N/A   Overcast
6:42 AM 66.2 °F 59.0 °F 78% 30.07 in 10.0 mi NNE 6.9 mph - N/A   Overcast
6:53 AM 66.0 °F 59.0 °F 78% 30.07 in 10.0 mi NE 6.9 mph - N/A   Overcast
7:53 AM 64.0 °F 57.9 °F 80% 30.09 in 10.0 mi ENE 9.2 mph - N/A   Overcast
8:53 AM 64.0 °F 57.9 °F 80% 30.11 in 10.0 mi NE 6.9 mph - N/A   Overcast
9:53 AM 64.0 °F 57.9 °F 80% 30.12 in 10.0 mi NE 8.1 mph - N/A   Overcast
10:53 AM 64.9 °F 57.9 °F 78% 30.13 in 10.0 mi NE 6.9 mph - N/A   Overcast
11:53 AM 66.0 °F 57.9 °F 75% 30.13 in 10.0 mi NE 5.8 mph - N/A   Overcast
12:53 PM 68.0 °F 59.0 °F 73% 30.13 in 10.0 mi NNE 8.1 mph - N/A   Overcast
1:49 PM 69.8 °F 59.0 °F 68% 30.12 in 10.0 mi Variable 4.6 mph - N/A   Overcast
1:53 PM 69.1 °F 59.0 °F 70% 30.12 in 10.0 mi Variable 3.5 mph - N/A   Overcast
2:53 PM 72.0 °F 60.1 °F 66% 30.09 in 10.0 mi NNE 9.2 mph - N/A   Overcast
3:53 PM 72.0 °F 60.1 °F 66% 30.08 in 10.0 mi North 8.1 mph - N/A   Overcast
4:29 PM 73.4 °F 60.8 °F 65% 30.08 in 10.0 mi North 5.8 mph - N/A   Partly Cloudy
4:53 PM 73.0 °F 60.1 °F 64% 30.07 in 10.0 mi North 4.6 mph - N/A   Partly Cloudy
5:53 PM 73.9 °F 61.0 °F 64% 30.07 in 10.0 mi North 3.5 mph - N/A   Partly Cloudy
6:53 PM 73.0 °F 61.0 °F 66% 30.06 in 10.0 mi North 5.8 mph - N/A   Clear
7:53 PM 70.0 °F 62.1 °F 76% 30.07 in 10.0 mi Calm Calm - N/A   Clear
8:53 PM 66.0 °F 62.1 °F 87% 30.08 in 10.0 mi Calm Calm - N/A   Clear
9:53 PM 64.9 °F 61.0 °F 87% 30.09 in 10.0 mi Calm Calm - N/A   Clear
10:53 PM 63.0 °F 60.1 °F 90% 30.10 in 10.0 mi Calm Calm - N/A   Clear
11:53 PM 63.0 °F 59.0 °F 87% 30.09 in 10.0 mi Calm Calm - N/A   Clear